Retour au catalogue

COSMOS 2499 DEB

LostPO
NORAD 56572·DEBRIS·🇷🇺 Russia

Lancé May 23, 2014 depuis Plesetsk Cosmodrome

Loading…

Prochains Passages (prochaines 24 heures)

TLE

PériméSource: Space-Track

Époque: May 25, 2023, 02:51 UTC

1 56572U 14028BF  23145.11886216  .00003268  00000-0  11361-1 0  9990
2 56572  82.0354 280.9842 0176019 119.7417 242.1332 12.91670192 16581

Suivez COSMOS 2499 DEB en temps réel avec AllMySat

Download on the App Store